Simultaneous Nadir Overpasses (SNOs) Predictions

Prediction of SNOs between NOAA-19 and METOP-C Satellite Orbit:

Table of predicted SNOs for the next 14.0 days since TLE Epoch: 3/19/2022
Index Date (NOAA-19) Time (NOAA-19) Lat,Lon (NOAA-19) SZA (NOAA-19 ) Date (METOP-C) Time (METOP-C) Lat,Lon (METOP-C) SZA (METOP-C ) Distance(km) Time Diff (sec)
1 03/22/2022 23:40:02 -80.79, 37.16 98.90 03/22/2022 23:41:10 -80.78, 37.13 98.89 1.52 68
2 03/23/2022 00:31:00 80.79,-155.42 81.10 03/23/2022 00:31:50 80.78,-155.46 81.11 0.96 50
3 03/23/2022 01:22:01 -80.78, 12.05 98.90 03/23/2022 01:22:31 -80.79, 12.00 98.89 1.24 30
4 03/23/2022 02:13:00 80.79, 179.10 81.08 03/23/2022 02:13:12 80.77, 179.06 81.07 1.63 12
5 03/23/2022 03:04:01 -80.78, -13.43 98.93 03/23/2022 03:03:53 -80.78, -13.48 98.94 0.98 8
6 03/23/2022 03:54:59 80.78, 153.99 81.07 03/23/2022 03:54:33 80.79, 153.92 81.07 1.43 26
7 03/23/2022 04:46:01 -80.78, -38.90 98.96 03/23/2022 04:45:15 -80.77, -38.97 98.98 1.37 46



Historial Predications of SNOs between NOAA-19 and METOP-C
